Location: Makakahi
(40.6833°S, 175.6000°E)
Time: 00:27:52
(UTC+00:00)

SL-14 R/B - Visible Passes

Search period start: 12 October 2024 00:00
Search period end: 22 October 2024 00:00
Orbit: 506 x 537 km, 82.4° (Epoch: 11 October)

Date Brightness Start Highest point End Pass type
(mag) Time Alt. Az. Time Alt. Az. Time Alt. Az.
12 Oct 4.5 16:42:12 10° S 16:45:57 46° E 16:49:37 10° NNE visible
13 Oct 4.8 16:28:59 10° S 16:32:39 39° ESE 16:36:14 10° NNE visible
14 Oct 5.1 16:15:46 10° S 16:19:18 33° ESE 16:22:47 10° NE visible
15 Oct 5.4 16:02:32 10° SSE 16:05:57 29° ESE 16:09:19 10° NE visible
16 Oct 5.6 15:49:19 10° SSE 15:52:34 25° ESE 15:55:46 10° NE visible
17 Oct 5.8 15:36:07 10° SSE 15:39:10 22° ESE 15:42:10 10° NE visible
18 Oct 6.0 15:22:56 10° SSE 15:25:45 19° ESE 15:28:31 10° ENE visible
19 Oct 6.2 15:09:47 10° SSE 15:12:17 17° ESE 15:14:48 10° ENE visible
19 Oct 4.0 16:44:47 10° SSW 16:48:12 30° W 16:51:33 10° NNW visible
20 Oct 6.3 14:56:40 10° SE 14:58:49 14° ESE 15:00:58 10° ENE visible
20 Oct 3.8 16:31:16 10° SSW 16:34:49 35° W 16:38:18 10° NNW visible
21 Oct 6.3 14:43:39 10° SE 14:45:20 12° ESE 14:46:59 10° E visible
21 Oct 3.6 16:17:45 10° SSW 16:21:24 42° W 16:25:00 10° NNW visible
